User: anonymous   Login
Location: Black Rock Desert
(40.7548°N, 119.2364°W)
Time: 17:03:35
(UTC-07:00)
Language:

Cosmos 1340 Rocket - Orbit

View from above orbital plane
View from above orbital plane
View from above satellite
View from above satellite

Ground track
Ground track

The orbit data is extracted from the following two-line orbital elements,

1 13068U 82013B   17082.90333316 -.00000063 +00000-0 -57939-5 0  9997
2 13068 081.2033 319.8267 0020673 235.7621 124.1645 15.06866096910388
Epoch (UTC): 23 March 2017 21:40:47
Eccentricity: 0.0020673
inclination: 81.2033°
perigee height: 531 km
apogee height: 560 km
right ascension of ascending node: 319.8267°
argument of perigee: 235.7621°
revolutions per day: 15.06866096
mean anomaly at epoch: 124.1645°
orbit number at epoch: 91038

The dashed part of the orbit path shows where the satellite is in the earth's shadow,  

DLR